Tracking 28052 objects as of 24-Sep-2023
HD Live streaming from Space Station
objects crossing your sky now

THORAD DELTA 1 DEB

Track THORAD DELTA 1 DEB now!
10-day predictions


NORAD ID: 42595
Int'l Code: 1974-089FL
Perigee: 1,451.2 km
Apogee: 1,521.5 km
Inclination: 101.5 °
Period: 115.5 minutes
Semi major axis: 7857 km
RCS: Unknown
Launch date: November 15, 1974
Source: United States (US)
Launch site: AIR FORCE WESTERN TEST RANGE (AFWTR)

Note: This is SATELLITE DEBRIS
Your satellite tracking list
Your tracking list is empty




NASA's NSSDC Master Catalog

Two Line Element Set (TLE):
1 42595U 74089FL  23266.74015835  .00000098  00000-0  96194-3 0  9994
2 42595 101.5452 256.7171 0044751  48.6800 311.8108 12.46483413447677
Source of the keplerian elements: AFSPC